weather.gov     
National Weather Service

Terminal Aerodrome Forecast
NWS Homepage
This page is being discontinued on March 12, 2014.
The same data is available at this site. Please update your bookmarks.
Thank you, and we apologize for the inconvenience.
Please send an email to SR-SRH.Webmaster@noaa.gov with any concerns.


Current Version
Previous Version:    01  02  03  04  05  06  07  08  09  10  11  12  13  14  15  16  17  18  19  20  21  22  23  24  25  
[Printable]
653
FTUS45 KMSO 211350 AAA
TAFSMN
TAF AMD
KSMN 211350Z 2114/2212 27007KT P6SM -RA OVC040
     FM211440 33007KT P6SM VCTS SCT040CB BKN060
     FM211700 34008KT P6SM -RA OVC040
      AMD LTD TO CLD VIS AND WIND=




653
FTUS45 KMSO 211350 AAA
TAFSMN
TAF AMD
KSMN 211350Z 2114/2212 27007KT P6SM -RA OVC040
     FM211440 33007KT P6SM VCTS SCT040CB BKN060
     FM211700 34008KT P6SM -RA OVC040
      AMD LTD TO CLD VIS AND WIND=


U.S. Dept. of Commerce
NOAA National Weather Service
1325 East West Highway
Silver Spring, MD 20910
E-mail: w-nws.webmaster@noaa.gov
Page last modified: May 16, 2007
NATIONAL WEATHER SERVICE: for Safety, for Work, for Fun - FOR LIFE